Home > Weather > Waterbury > Past weeks

Flag for USA Weather for the Past 2 Weeks in Waterbury, Connecticut, USA

Now
43 °F

Overcast.


Feels Like: 37 °F
Forecast: 41 / 53 °F
Wind: 9 mph from Northeast

Location: Oxford

Current Time: May 5, 2016 at 6:51:09 AM

Latest Report: May 5, 2016 at 5:55 AM


Visibility: 10 mi

Pressure: 29.70 "Hg

Humidity: 81%

Dew Point: 37 °F

Location of WaterburyLocation

Historic Weather in Waterbury — Graph

°F

Waterbury Temperature Yesterday

Maximum temperature yesterday: 50 °F (at 2:50 PM)
Minimum temperature yesterday: 45 °F (at 8:55 PM)
Average temperature yesterday: 47 °F

High & Low Weather Summary for the Past Weeks

 TemperatureHumidityPressure
High75 °F (Apr 22, 1:50 PM)94% (Apr 23, 5:15 AM)30.27 "Hg (Apr 23, 5:15 AM)
Low36 °F (Apr 24, 4:15 AM)16% (Apr 20, 4:52 PM)29.70 "Hg (Apr 26, 11:50 AM)
Average49 °F65%29.99 "Hg
* Reported Apr 20 5:15 AM — May 5 5:35 AM, Waterbury, Weather by CustomWeather, © 2016

Note: Actual official high and low records may vary slightly from our data, if they occured in-between our weather recording intervals... More about our weather records

Advertising

Waterbury Weather History for the Previous 24 Hours

Scroll right to see more
 ConditionsComfort  
Time TempWeatherWind HumidityBarometerVisibility
5:35 AM
Thu, May 5
43 °FOvercast.12 mph81%29.71 "Hg10 mi
5:15 AM43 °FQuite cool.10 mph81%29.72 "Hg10 mi
4:55 AM43 °FQuite cool.8 mph81%29.73 "Hg10 mi
4:35 AM43 °FQuite cool.13 mph81%29.72 "Hg10 mi
4:15 AM43 °FQuite cool.13 mph81%29.72 "Hg10 mi
3:55 AM43 °FQuite cool.13 mph81%29.72 "Hg10 mi
3:35 AM43 °FQuite cool.13 mph81%29.71 "Hg10 mi
3:15 AM43 °FQuite cool.14 mph81%29.73 "Hg10 mi
2:55 AM43 °FQuite cool.14 mph81%29.73 "Hg10 mi
2:35 AM43 °FQuite cool.7 mph81%29.74 "Hg10 mi
2:15 AM43 °FQuite cool.15 mph81%29.74 "Hg10 mi
1:55 AM45 °FQuite cool.10 mph76%29.74 "Hg10 mi
1:35 AM45 °FQuite cool.12 mph76%29.75 "Hg10 mi
1:15 AM45 °FQuite cool.16 mph76%29.75 "Hg10 mi
12:55 AM45 °FQuite cool.12 mph76%29.75 "Hg10 mi
12:35 AM45 °FQuite cool.15 mph76%29.76 "Hg10 mi
12:15 AM45 °FQuite cool.14 mph76%29.76 "Hg10 mi
11:55 PM
Wed, May 4
45 °FQuite cool.15 mph76%29.76 "Hg10 mi
11:35 PM45 °FQuite cool.13 mph76%29.76 "Hg10 mi
11:15 PM45 °FQuite cool.15 mph76%29.76 "Hg10 mi
10:55 PM45 °FQuite cool.13 mph76%29.76 "Hg10 mi
10:35 PM45 °FQuite cool.10 mph81%29.77 "Hg10 mi
10:15 PM45 °FQuite cool.13 mph81%29.78 "Hg10 mi
9:55 PM45 °FQuite cool.9 mph81%29.77 "Hg10 mi
9:35 PM45 °FQuite cool.8 mph81%29.78 "Hg10 mi
9:15 PM45 °FQuite cool.12 mph81%29.77 "Hg10 mi
8:55 PM45 °FQuite cool.8 mph81%29.79 "Hg10 mi
7:50 PM46 °FThunderstorms. Cloudy.5 mph76%29.78 "HgN/A
6:50 PM46 °FCool.6 mph76%29.75 "HgN/A
5:50 PM48 °FOvercast.9 mph71%29.75 "Hg10 mi
4:50 PM48 °FSmoke.N/A76%29.75 "HgN/A
3:50 PM48 °FOvercast.9 mph71%29.76 "Hg10 mi
2:50 PM50 °FOvercast.10 mph71%29.76 "Hg10 mi
1:50 PM48 °FOvercast.7 mph76%29.78 "Hg10 mi
12:50 PM48 °FOvercast.8 mph71%29.81 "Hg10 mi
11:50 AM48 °FOvercast.7 mph76%29.82 "Hg10 mi
10:50 AM48 °FOvercast.6 mph71%29.84 "Hg10 mi
9:50 AM46 °FMore clouds than sun.6 mph76%29.83 "Hg10 mi
8:50 AM46 °FOvercast.6 mph76%29.82 "Hg10 mi
7:50 AM46 °FOvercast.6 mph82%29.84 "Hg10 mi
6:50 AM46 °FOvercast.No wind82%29.84 "Hg10 mi
Weather by CustomWeather, © 2016

See weather overviewHow to use our weather pages